Other Public Products
Issued by NWS Grand Forks, ND

Home | Current Version | Previous Version | Graphics & Text | Print | Product List | Glossary On
Versions: 1 2 3 4 5 6 7 8 9 10 11 12 13 14 15 16 17 18 19 20 21 22 23 24 25 26 27 28 29 30 31 32 33 34 35 36 37 38 39 40 41 42 43 44 45 46 47 48 49 50
000
FPUS83 KFGF 291931
OPUFGF
PRAIRIE TO PINES WEATHER ROUNDUP
NATIONAL WEATHER SERVICE EASTERN NORTH DAKOTA/GRAND FORKS ND
200 PM CDT SUN MAR 29 2015

 **SATELLITE DATA USED TO AUGMENT SKY COVER AT AUTOMATED STATIONS**
 *****  WEATHER ACROSS EASTERN NORTH DAKOTA  *****

CITY           SKY/WX    TMP DP  RH WIND       PRES   REMARKS
GRAND FORKS    MOSUNNY   52  28  39 N28G36    29.86S
GRAND FORKS AF MOSUNNY   53  28  37 N28G37    29.87S
GRAND CITY NWS   N/A     52 N/A N/A VRB29       N/A
BUXTON           N/A     53  28  38 NW26G41     N/A
DEVILS LAKE    SUNNY     52  28  40 NW24      29.91F
FARGO          NOT AVBL
WAHPETON ARPT  PTCLDY    52  32  46 NW31G39   29.90R
$$

 *****  WEATHER ACROSS CENTRAL AND WESTERN NORTH DAKOTA  *****

CITY           SKY/WX    TMP DP  RH WIND       PRES   REMARKS
JAMESTOWN      MOSUNNY   55  26  32 NW28G33   29.96R
BISMARCK       SUNNY     56  23  27 NW12G30   30.05F
MINOT          MOSUNNY   56  23  27 W24G32    29.97F
MINOT AFB      SUNNY     54  29  37 NW22G30   29.96F
GARRISON         N/A     54  32  43 W17G29    30.01F
WILLISTON      SUNNY     56  37  49 W16       30.03F
DICKINSON      MOSUNNY   54  34  46 W16       30.05F
HETTINGER      NOT AVBL
$$

 *****  OTHER OBSERVATIONS NORTHEAST NORTH DAKOTA  *****

CITY           SKY/WX    TMP DP  RH WIND       PRES   REMARKS
WALHALLA         N/A     50  32  50 NW18G28   29.87R
LANGDON        NOT AVBL
CAVALIER       FAIR      50  30  46 N22G31    29.86S
GRAFTON        NOT AVBL
CANDO          FAIR      54  27  35 NW23G30   29.92F
FORT TOTTEN    NOT AVBL
ROLLA          FAIR      50  28  43 NW18G25   29.91F
RUGBY            N/A     52  32  46 NW21G30   29.93F
 ***** THE ABOVE OBSERVATIONS ARE NON NWS ARE NOT QUALITY
        CONTROLLED AND MAY MIS-REPORT RAIN FOR SNOW...
$$

 *****  OTHER OBSERVATIONS SOUTHEAST NORTH DAKOTA *****

CITY           SKY/WX    TMP DP  RH WIND       PRES   REMARKS
COOPERSTOWN    NOT AVBL
VALLEY CITY    FAIR      54  27  35 NW30G37   29.94R
OAKES            N/A     52  32  46 NW29G40   29.96S
GWINNER        CLEAR     54  32  43 NW26G37     N/A
SHEYENNE NWR     N/A     54  28  36 NW20      29.95
BUFFALO        NOT AVBL
WYNDMERE         N/A     54  34  47 NW26        N/A
 ***** THE ABOVE OBSERVATIONS ARE NON NWS ARE NOT QUALITY
       CONTROLLED AND MAY MIS-REPORT RAIN FOR SNOW...
$$

  *****  WEATHER ACROSS NORTHERN MINNESOTA  *****

CITY           SKY/WX    TMP DP  RH WIND       PRES   REMARKS
FLAG ISLAND    MOSUNNY   39  28  65 NW26G35   29.72R
WARROAD        MOSUNNY   45  34  65 NW24G33   29.75S
ROSEAU         MOSUNNY   46  36  66 NW25G31   29.77R
HALLOCK        SUNNY     48  34  57 NW24G30   29.83S
THF RVR FALLS  CLOUDY    46  36  66 NW28G36   29.83S
HALSTAD          N/A     53  28  38 NW25        N/A
FOSSTON        PTSUNNY   43  34  70 NW28G40   29.83R
BAUDETTE       PTSUNNY   41  31  67 NW22G35   29.71R
WASKISH        MOSUNNY   43  30  61 NW17G30   29.73R
CROOKSTON      PTSUNNY   48  34  57 N26G36    29.86S
$$
  *****  WEATHER ACROSS CENTRAL AND WEST MINNESOTA  *****

CITY           SKY/WX    TMP DP  RH WIND       PRES   REMARKS
BEMIDJI        MOSUNNY   45  30  56 NW28G39   29.75R
PARK RAPIDS    MOSUNNY   47  31  53 NW28G40   29.75R
WADENA         MOSUNNY   46  32  57 NW26G38   29.79R
DETROIT LAKES  PTSUNNY   45  32  61 NW29G40   29.84R
MOORHEAD       MOSUNNY   52  34  50 N26G36    29.89R
FERGUS FALLS   MOSUNNY   48  34  57 NW26G41   29.89R
ELBOW LAKE     MOCLDY    47  33  57 NW26G38   29.86R
MORRIS MN      MOSUNNY   54  36  50 NW37G46   29.86R
STAPLES        MOSUNNY   46  30  53 NW25G37   29.77R
WHEATON        MOSUNNY   52  32  46 NW25G33   29.92R
$$
  *****  WEATHER ELSEWHERE ACROSS MINNESOTA  *****

CITY           SKY/WX    TMP DP  RH WIND       PRES   REMARKS
DULUTH         LGT RAIN  39  34  82 NW24G37   29.54R
INTRNTL FALLS  CLOUDY    39  31  72 NW22G33   29.63R
ELY            LGT RAIN  36  34  93 NW14G24   29.53R
CLOQUET        CLOUDY    37  32  81 NW25G35   29.61R
BRAINERD       MOSUNNY   48  29  47 NW28G38   29.71R
HIBBING        LGT RAIN  36  33  89 NW23G33   29.60R
ALEXANDRIA     MOSUNNY   47  31  53 NW31G43   29.82R
SAINT CLOUD    MOSUNNY   48  35  60 NW25G41   29.73R
MINNEAPOLIS    PTSUNNY   48  38  68 NW20G33   29.72R
$$

  *****  WEATHER ACROSS SOUTH DAKOTA  *****

CITY           SKY/WX    TMP DP  RH WIND       PRES   REMARKS
SIOUX FALLS    MOSUNNY   57  27  31 NW28G40   29.97R
BROOKINGS      NOT AVBL
WATERTOWN      SUNNY     53  29  39 NW30G40   29.95S
HURON          SUNNY     57  28  33 NW31G41   30.02F
SISSETON         N/A     53  35  50 N32G40    29.92R
ABERDEEN       MOSUNNY   57  24  28 NW26G35   30.03R
MITCHELL       SUNNY     58  27  30 NW28G37   30.04F
PIERRE         SUNNY     56  26  31 NW22      30.11S
MOBRIDGE       SUNNY     57  26  30 NW21G28   30.06S
RAPID CITY     SUNNY     61  30  31 N18G26    30.14F
$$

  *****  SOME WEATHER IN NEARBY STATES *****

CITY           SKY/WX    TMP DP  RH WIND       PRES   REMARKS
GLASGOW MT     SUNNY     58  32  37 W17G26    30.04F
GREAT FALLS MT CLOUDY    52  23  32 SW22G29   30.11F
CHEYENNE WY    SUNNY     56  13  18 VRB6      30.25F
SCOTTSBLUFF NE SUNNY     60  26  27 NW13G26   30.22F
OMAHA NE       CLOUDY    53  38  56 NW25G36   30.02R
DES MOINES IA  PTSUNNY   61  40  45 NW36G47   29.87R
DAVENPORT IA   MOSUNNY   50  38  63 SW22G29   29.83F
CHICAGO IL     DRIZZLE   35  28  75 SW21G35   29.87S WCI  24
EAU CLAIRE WI  LGT RAIN  43  39  86 NW23G32   29.59R
LA CROSSE WI   CLOUDY    47  37  68 W30G43    29.63R
$$

  *****  SOME NATIONAL WEATHER *****

CITY           SKY/WX    TMP DP  RH WIND       PRES   REMARKS
LA GUARDIA NY  SUNNY     42   3  19 NW6       30.21F
RALEIGH NC     MOSUNNY   47   6  18 CALM      30.35F
ATLANTA GA     MOSUNNY   57  16  20 S10       30.33F
NEW ORLEANS LA PTSUNNY   75  60  59 S10       30.25F
OKLAHOMA CITY  MOSUNNY   75  50  41 NW13      30.01S
ALBUQUERQUE NM PTSUNNY   73  21  14 SW8       30.24F
SALT LAKE CITY MOSUNNY   60  18  19 CALM      30.31F
LOS ANGELES CA MOSUNNY   65  57  75 W9        30.06F
BOISE ID       SUNNY     58  31  35 CALM      30.30F
SEATTLE WA     CLOUDY    55  44  66 S8        30.26S
$$

*** WEATHER ACROSS MANITOBA...SASKATCHEWAN AND ONTARIO ***
                ***ONTARIO***

CITY           SKY/WX    TMP DP  RH WIND       PRES   REMARKS
GERALDTON      LGT SNOW  32  28  86 SW9       29.33F VSB 1   WCI  24
THUNDER BAY    LGT RAIN  36  34  93 W7        29.39S FOG
SIOUX LOOKOUT  LGTSLEET  36  32  87 N20G29    29.53R
TORONTO        MOSUNNY   43  12  28 S20G28    30.07F
BIG TROUT LK   FLURRIES  27  25  93 N12G24    29.48R WCI  16
PICKLE LAKE    LGT SNOW  34  30  86 NW10G21   29.42R DRFTSNOW
DRYDEN         LGT RAIN  36  30  80 NW14G29   29.58R
KENORA         PTSUNNY   39  28  65 NW16G31   29.67R
$$
                *** MANITOBA***

CITY           SKY/WX    TMP DP  RH WIND       PRES   REMARKS
BRANDON        PTSUNNY   46  32  57 W18       29.90F
DAUPHIN        SUNNY     45  34  65 W17G23    29.83F
ISLAND LAKE    FLURRIES  32  27  80 N10       29.66R WCI  24
PILOT MOUND      N/A     46  32  57 NW21G28     N/A
THE PAS        MOSUNNY   46  28  49 NW14      29.77S
THOMPSON       CLOUDY    25  18  74 N8        29.77R WCI  16
WINNIPEG       MOSUNNY   48  32  53 NW21G28   29.83S
LYNN LAKE      CLOUDY    30  23  74 VRB2      29.76R
CHURCHILL      PTSUNNY    7   1  78 NE14      29.89R WCI -10
GILLAM         FLURRIES  18   9  68 NE16      29.78R WCI   3
$$
                ***SASKATCHEWAN***

CITY           SKY/WX    TMP DP  RH WIND       PRES   REMARKS
ESTEVAN        MOSUNNY   52  34  50 NW18G25   29.98F
KINDERSLEY     MOSUNNY   52  41  66 S16       29.89F
LLOYDMINSTER   PTSUNNY   48  36  61 SW13      29.84F
PRINCE ALBERT  MOSUNNY   50  30  46 W10       29.87F
REGINA         MOSUNNY   50  39  66 W12       29.98F


USA.gov is the U.S. government's official web portal to all federal, state and local government web resources and services.